Time,TemperatureF,DewpointF,PressureIn,WindDirection,WindDirectionDegrees,WindSpeedMPH,WindSpeedGustMPH,Humidity,HourlyPrecipIn,Conditions,Clouds,dailyrainin,SoftwareType,DateUTC
2013-12-20 00:03:00,50.8,32.0,30.22,SSE,166,4.0,-999.0,49,-99.99,,,0.00,weatherlink.com 1.10,2013-12-20 06:03:00,
2013-12-20 00:18:00,50.5,32.0,30.21,SSE,162,5.0,-999.0,49,-99.99,,,0.00,weatherlink.com 1.10,2013-12-20 06:18:00,
2013-12-20 00:33:00,50.5,32.0,30.21,SSE,161,6.0,-999.0,49,-99.99,,,0.00,weatherlink.com 1.10,2013-12-20 06:33:00,
2013-12-20 00:48:00,50.2,32.0,30.21,SE,145,0.0,-999.0,50,-99.99,,,0.00,weatherlink.com 1.10,2013-12-20 06:48:00,
2013-12-20 01:03:00,49.8,32.0,30.22,SSE,153,4.0,-999.0,51,-99.99,,,0.00,weatherlink.com 1.10,2013-12-20 07:03:00,
2013-12-20 01:18:00,49.4,32.0,30.22,South,169,2.0,-999.0,51,-99.99,,,0.00,weatherlink.com 1.10,2013-12-20 07:18:00,
2013-12-20 01:33:00,49.1,32.0,30.22,SSE,155,2.0,-999.0,53,-99.99,,,0.00,weatherlink.com 1.10,2013-12-20 07:33:00,
2013-12-20 01:48:00,48.6,32.0,30.22,SSE,161,1.0,-999.0,54,-99.99,,,0.00,weatherlink.com 1.10,2013-12-20 07:48:00,
2013-12-20 02:03:00,48.2,33.0,30.21,SSE,167,2.0,-999.0,55,-99.99,,,0.00,weatherlink.com 1.10,2013-12-20 08:03:00,
2013-12-20 02:18:00,48.3,33.0,30.21,SSE,148,4.0,-999.0,56,-99.99,,,0.00,weatherlink.com 1.10,2013-12-20 08:18:00,
2013-12-20 02:33:00,49.0,33.0,30.21,SSE,155,5.0,-999.0,55,-99.99,,,0.00,weatherlink.com 1.10,2013-12-20 08:33:00,
2013-12-20 02:48:00,49.2,34.0,30.21,SSE,167,6.0,-999.0,56,-99.99,,,0.00,weatherlink.com 1.10,2013-12-20 08:48:00,
2013-12-20 03:03:00,49.7,34.0,30.20,SSE,157,6.0,-999.0,56,-99.99,,,0.00,weatherlink.com 1.10,2013-12-20 09:03:00,
2013-12-20 03:18:00,50.1,34.0,30.20,SSE,159,7.0,-999.0,55,-99.99,,,0.00,weatherlink.com 1.10,2013-12-20 09:18:00,
2013-12-20 03:33:00,50.3,35.0,30.20,SE,136,2.0,-999.0,56,-99.99,,,0.00,weatherlink.com 1.10,2013-12-20 09:33:00,
2013-12-20 03:48:00,50.6,35.0,30.20,SSE,149,7.0,-999.0,56,-99.99,,,0.00,weatherlink.com 1.10,2013-12-20 09:48:00,
2013-12-20 04:03:00,50.9,35.0,30.19,SSE,150,12.0,-999.0,56,-99.99,,,0.00,weatherlink.com 1.10,2013-12-20 10:03:00,
2013-12-20 04:18:00,51.0,36.0,30.20,South,178,6.0,-999.0,56,-99.99,,,0.00,weatherlink.com 1.10,2013-12-20 10:18:00,
2013-12-20 04:33:00,50.9,36.0,30.20,SE,136,6.0,-999.0,57,-99.99,,,0.00,weatherlink.com 1.10,2013-12-20 10:33:00,
2013-12-20 04:48:00,50.8,36.0,30.20,SSE,153,4.0,-999.0,57,-99.99,,,0.00,weatherlink.com 1.10,2013-12-20 10:48:00,
2013-12-20 05:03:00,50.9,36.0,30.20,SSE,159,9.0,-999.0,57,-99.99,,,0.00,weatherlink.com 1.10,2013-12-20 11:03:00,
2013-12-20 05:18:00,51.1,36.0,30.20,SSE,159,4.0,-999.0,56,-99.99,,,0.00,weatherlink.com 1.10,2013-12-20 11:18:00,
2013-12-20 05:33:00,51.3,36.0,30.20,SSE,150,11.0,-999.0,57,-99.99,,,0.00,weatherlink.com 1.10,2013-12-20 11:33:00,
2013-12-20 05:48:00,51.3,36.0,30.19,South,187,7.0,-999.0,57,-99.99,,,0.00,weatherlink.com 1.10,2013-12-20 11:48:00,
2013-12-20 06:03:00,51.4,36.0,30.20,South,172,4.0,-999.0,57,-99.99,,,0.00,weatherlink.com 1.10,2013-12-20 12:03:00,
2013-12-20 06:18:00,51.4,36.0,30.20,SSE,164,4.0,-999.0,57,-99.99,,,0.00,weatherlink.com 1.10,2013-12-20 12:18:00,
2013-12-20 06:33:00,51.4,36.0,30.20,SSE,157,2.0,-999.0,57,-99.99,,,0.00,weatherlink.com 1.10,2013-12-20 12:33:00,
2013-12-20 06:48:00,51.6,37.0,30.20,SE,136,5.0,-999.0,57,-99.99,,,0.00,weatherlink.com 1.10,2013-12-20 12:48:00,
2013-12-20 07:03:00,51.6,37.0,30.20,SSW,198,6.0,-999.0,58,-99.99,,,0.00,weatherlink.com 1.10,2013-12-20 13:03:00,
2013-12-20 07:18:00,51.6,37.0,30.20,South,184,4.0,-999.0,58,-99.99,,,0.00,weatherlink.com 1.10,2013-12-20 13:18:00,
2013-12-20 07:33:00,51.7,37.0,30.20,SSW,205,4.0,-999.0,57,-99.99,,,0.00,weatherlink.com 1.10,2013-12-20 13:33:00,
2013-12-20 07:48:00,51.8,37.0,30.20,South,174,6.0,-999.0,58,-99.99,,,0.00,weatherlink.com 1.10,2013-12-20 13:48:00,
2013-12-20 08:03:00,52.1,37.0,30.21,South,182,5.0,-999.0,57,-99.99,,,0.00,weatherlink.com 1.10,2013-12-20 14:03:00,
2013-12-20 08:18:00,52.5,37.0,30.21,SSE,167,2.0,-999.0,57,-99.99,,,0.00,weatherlink.com 1.10,2013-12-20 14:18:00,
2013-12-20 08:33:00,53.1,38.0,30.21,SSE,165,6.0,-999.0,58,-99.99,,,0.00,weatherlink.com 1.10,2013-12-20 14:33:00,
2013-12-20 08:48:00,53.4,39.0,30.22,SSE,153,6.0,-999.0,58,-99.99,,,0.00,weatherlink.com 1.10,2013-12-20 14:48:00,
2013-12-20 09:03:00,53.7,39.0,30.22,SSW,195,5.0,-999.0,59,-99.99,,,0.00,weatherlink.com 1.10,2013-12-20 15:03:00,
2013-12-20 09:18:00,54.2,40.0,30.22,SSE,148,2.0,-999.0,59,-99.99,,,0.00,weatherlink.com 1.10,2013-12-20 15:18:00,
2013-12-20 09:33:00,54.6,40.0,30.22,SSE,159,7.0,-999.0,59,-99.99,,,0.00,weatherlink.com 1.10,2013-12-20 15:33:00,
2013-12-20 09:48:00,55.4,41.0,30.21,SSE,158,11.0,-999.0,59,-99.99,,,0.00,weatherlink.com 1.10,2013-12-20 15:48:00,
2013-12-20 10:03:00,56.0,43.0,30.21,SSE,159,9.0,-999.0,61,-99.99,,,0.00,weatherlink.com 1.10,2013-12-20 16:03:00,
2013-12-20 10:18:00,56.5,43.0,30.20,SSE,150,13.0,-999.0,61,-99.99,,,0.00,weatherlink.com 1.10,2013-12-20 16:18:00,
2013-12-20 10:34:00,57.8,45.0,30.20,South,175,6.0,-999.0,62,-99.99,,,0.00,weatherlink.com 1.10,2013-12-20 16:34:00,
2013-12-20 10:49:00,58.4,47.0,30.19,South,183,14.0,-999.0,65,-99.99,,,0.00,weatherlink.com 1.10,2013-12-20 16:49:00,
2013-12-20 11:04:00,59.6,48.0,30.19,South,189,15.0,-999.0,66,-99.99,,,0.00,weatherlink.com 1.10,2013-12-20 17:04:00,
2013-12-20 11:19:00,59.8,49.0,30.18,South,173,10.0,-999.0,67,-99.99,,,0.00,weatherlink.com 1.10,2013-12-20 17:19:00,
2013-12-20 11:34:00,60.2,50.0,30.18,South,179,10.0,-999.0,69,-99.99,,,0.00,weatherlink.com 1.10,2013-12-20 17:34:00,
2013-12-20 11:49:00,60.3,50.0,30.17,SSE,162,5.0,-999.0,69,-99.99,,,0.00,weatherlink.com 1.10,2013-12-20 17:49:00,
2013-12-20 12:04:00,61.8,51.0,30.17,SSW,194,6.0,-999.0,68,-99.99,,,0.00,weatherlink.com 1.10,2013-12-20 18:04:00,
2013-12-20 12:19:00,62.9,51.0,30.15,SSE,167,8.0,-999.0,66,-99.99,,,0.00,weatherlink.com 1.10,2013-12-20 18:19:00,
2013-12-20 12:34:00,62.7,52.0,30.15,South,178,11.0,-999.0,69,-99.99,,,0.00,weatherlink.com 1.10,2013-12-20 18:34:00,
2013-12-20 12:49:00,62.5,53.0,30.14,SSW,200,10.0,-999.0,70,-99.99,,,0.00,weatherlink.com 1.10,2013-12-20 18:49:00,
2013-12-20 13:04:00,63.1,52.0,30.13,SSW,192,12.0,-999.0,68,-99.99,,,0.00,weatherlink.com 1.10,2013-12-20 19:04:00,
2013-12-20 13:19:00,63.1,53.0,30.13,SSW,198,7.0,-999.0,69,-99.99,,,0.00,weatherlink.com 1.10,2013-12-20 19:19:00,
2013-12-20 13:34:00,63.4,53.0,30.13,South,184,10.0,-999.0,70,-99.99,,,0.00,weatherlink.com 1.10,2013-12-20 19:34:00,
2013-12-20 13:49:00,63.1,54.0,30.12,South,178,10.0,-999.0,71,-99.99,,,0.00,weatherlink.com 1.10,2013-12-20 19:49:00,
2013-12-20 14:04:00,63.2,53.0,30.12,South,171,5.0,-999.0,70,-99.99,,,0.00,weatherlink.com 1.10,2013-12-20 20:04:00,
2013-12-20 14:19:00,63.1,54.0,30.12,South,169,6.0,-999.0,71,-99.99,,,0.00,weatherlink.com 1.10,2013-12-20 20:19:00,
2013-12-20 14:34:00,63.1,54.0,30.11,SE,136,10.0,-999.0,73,-99.99,,,0.00,weatherlink.com 1.10,2013-12-20 20:34:00,
2013-12-20 14:49:00,63.5,55.0,30.11,South,169,6.0,-999.0,74,-99.99,,,0.00,weatherlink.com 1.10,2013-12-20 20:49:00,
2013-12-20 15:04:00,63.8,56.0,30.12,SSE,164,5.0,-999.0,75,-99.99,,,0.00,weatherlink.com 1.10,2013-12-20 21:04:00,
2013-12-20 15:19:00,63.9,56.0,30.11,South,177,9.0,-999.0,76,-99.99,,,0.00,weatherlink.com 1.10,2013-12-20 21:19:00,
2013-12-20 15:34:00,63.7,56.0,30.11,SSE,166,7.0,-999.0,77,-99.99,,,0.00,weatherlink.com 1.10,2013-12-20 21:34:00,
2013-12-20 15:49:00,63.4,56.0,30.11,SSE,167,6.0,-999.0,78,-99.99,,,0.00,weatherlink.com 1.10,2013-12-20 21:49:00,
2013-12-20 16:04:00,63.1,56.0,30.12,SSE,156,7.0,-999.0,78,-99.99,,,0.00,weatherlink.com 1.10,2013-12-20 22:04:00,
2013-12-20 16:19:00,62.9,56.0,30.12,South,178,4.0,-999.0,78,-99.99,,,0.00,weatherlink.com 1.10,2013-12-20 22:19:00,
2013-12-20 16:34:00,62.7,56.0,30.12,SSE,164,2.0,-999.0,78,-99.99,,,0.00,weatherlink.com 1.10,2013-12-20 22:34:00,
2013-12-20 16:49:00,62.6,56.0,30.13,SSE,165,4.0,-999.0,78,-99.99,,,0.00,weatherlink.com 1.10,2013-12-20 22:49:00,
2013-12-20 17:04:00,62.4,55.0,30.13,SSE,155,2.0,-999.0,78,-99.99,,,0.00,weatherlink.com 1.10,2013-12-20 23:04:00,
2013-12-20 17:19:00,62.2,55.0,30.14,SSE,153,7.0,-999.0,78,-99.99,,,0.00,weatherlink.com 1.10,2013-12-20 23:19:00,
2013-12-20 17:34:00,62.2,55.0,30.13,SSE,153,9.0,-999.0,78,-99.99,,,0.00,weatherlink.com 1.10,2013-12-20 23:34:00,
2013-12-20 17:49:00,62.2,55.0,30.13,SE,146,7.0,-999.0,78,-99.99,,,0.00,weatherlink.com 1.10,2013-12-20 23:49:00,
2013-12-20 18:04:00,62.0,55.0,30.14,SSE,159,5.0,-999.0,78,-99.99,,,0.00,weatherlink.com 1.10,2013-12-21 00:04:00,
2013-12-20 18:19:00,61.9,55.0,30.13,SE,130,8.0,-999.0,78,-99.99,,,0.00,weatherlink.com 1.10,2013-12-21 00:19:00,
2013-12-20 18:34:00,61.7,55.0,30.13,SSE,148,7.0,-999.0,78,-99.99,,,0.00,weatherlink.com 1.10,2013-12-21 00:34:00,
2013-12-20 18:49:00,61.6,55.0,30.13,SSE,161,10.0,-999.0,78,-99.99,,,0.00,weatherlink.com 1.10,2013-12-21 00:49:00,
2013-12-20 19:04:00,61.4,55.0,30.13,SE,140,11.0,-999.0,79,-99.99,,,0.00,weatherlink.com 1.10,2013-12-21 01:04:00,
2013-12-20 19:19:00,61.1,55.0,30.13,SSE,152,5.0,-999.0,80,-99.99,,,0.00,weatherlink.com 1.10,2013-12-21 01:19:00,
2013-12-20 19:34:00,60.9,55.0,30.13,SE,146,7.0,-999.0,81,-99.99,,,0.00,weatherlink.com 1.10,2013-12-21 01:34:00,
2013-12-20 19:49:00,61.0,56.0,30.13,SSE,154,5.0,-999.0,82,-99.99,,,0.00,weatherlink.com 1.10,2013-12-21 01:49:00,
2013-12-20 20:04:00,61.2,56.0,30.13,SSE,157,8.0,-999.0,83,-99.99,,,0.00,weatherlink.com 1.10,2013-12-21 02:04:00,
2013-12-20 20:19:00,61.1,56.0,30.13,SE,146,4.0,-999.0,83,-99.99,,,0.00,weatherlink.com 1.10,2013-12-21 02:19:00,
2013-12-20 20:34:00,60.8,56.0,30.13,SSE,152,6.0,-999.0,84,-99.99,,,0.00,weatherlink.com 1.10,2013-12-21 02:34:00,
2013-12-20 20:49:00,60.7,56.0,30.12,SSE,155,5.0,-999.0,84,-99.99,,,0.00,weatherlink.com 1.10,2013-12-21 02:49:00,
2013-12-20 21:04:00,60.5,56.0,30.13,South,175,6.0,-999.0,85,-99.99,,,0.00,weatherlink.com 1.10,2013-12-21 03:04:00,
2013-12-20 21:19:00,60.3,56.0,30.12,South,169,2.0,-999.0,86,-99.99,,,0.00,weatherlink.com 1.10,2013-12-21 03:19:00,
2013-12-20 21:34:00,60.1,56.0,30.11,SSE,159,6.0,-999.0,86,-99.99,,,0.00,weatherlink.com 1.10,2013-12-21 03:34:00,
2013-12-20 21:49:00,59.9,56.0,30.11,SSE,158,7.0,-999.0,87,-99.99,,,0.00,weatherlink.com 1.10,2013-12-21 03:49:00,
2013-12-20 22:04:00,59.8,56.0,30.11,South,171,5.0,-999.0,87,-99.99,,,0.00,weatherlink.com 1.10,2013-12-21 04:04:00,
2013-12-20 22:19:00,60.0,56.0,30.11,SSE,151,7.0,-999.0,87,-99.99,,,0.00,weatherlink.com 1.10,2013-12-21 04:19:00,
2013-12-20 22:34:00,60.3,57.0,30.11,South,173,7.0,-999.0,87,-99.99,,,0.00,weatherlink.com 1.10,2013-12-21 04:34:00,
2013-12-20 22:49:00,60.5,57.0,30.09,SE,139,10.0,-999.0,87,-99.99,,,0.00,weatherlink.com 1.10,2013-12-21 04:49:00,
2013-12-20 23:04:00,60.5,57.0,30.09,SSE,157,6.0,-999.0,87,-99.99,,,0.00,weatherlink.com 1.10,2013-12-21 05:04:00,
2013-12-20 23:20:00,60.8,57.0,30.09,SSE,167,5.0,-999.0,87,-99.99,,,0.00,weatherlink.com 1.10,2013-12-21 05:20:00,
2013-12-20 23:34:00,60.9,57.0,30.09,South,173,6.0,-999.0,88,-99.99,,,0.00,weatherlink.com 1.10,2013-12-21 05:34:00,
2013-12-20 23:50:00,61.0,58.0,30.08,SSE,165,11.0,-999.0,88,-99.99,,,0.00,weatherlink.com 1.10,2013-12-21 05:50:00,